Time,TemperatureF,DewpointF,PressureIn,WindDirection,WindDirectionDegrees,WindSpeedMPH,WindSpeedGustMPH,Humidity,HourlyPrecipIn,Conditions,Clouds,dailyrainin,SoftwareType,DateUTC
2013-05-23 00:03:00,64.0,63.0,-100.00,SW,230,7.0,9.0,97,0.00,,,-99.99,,2013-05-23 04:03:00,
2013-05-23 00:12:00,64.0,64.0,-100.00,SW,230,6.0,8.0,97,0.00,,,-99.99,,2013-05-23 04:12:00,
2013-05-23 00:22:00,64.0,64.0,-100.00,SW,225,6.0,7.0,97,0.00,,,-99.99,,2013-05-23 04:22:00,
2013-05-23 00:33:00,65.0,64.0,-100.00,SW,235,6.0,7.0,97,0.00,,,-99.99,,2013-05-23 04:33:00,
2013-05-23 00:43:00,65.0,64.0,-100.00,SW,230,6.0,9.0,97,0.00,,,-99.99,,2013-05-23 04:43:00,
2013-05-23 00:52:00,65.0,64.0,-100.00,SW,230,6.0,9.0,97,0.00,,,-99.99,,2013-05-23 04:52:00,
2013-05-23 01:02:00,65.0,64.0,-100.00,SW,225,6.0,7.0,96,0.00,,,-99.99,,2013-05-23 05:02:00,
2013-05-23 01:11:00,65.0,64.0,-100.00,SW,235,9.0,11.0,95,0.00,,,-99.99,,2013-05-23 05:11:00,
2013-05-23 01:22:00,65.0,64.0,-100.00,SW,235,9.0,11.0,95,0.00,,,-99.99,,2013-05-23 05:22:00,
2013-05-23 01:32:00,65.0,63.0,-100.00,SW,230,7.0,10.0,92,0.00,,,-99.99,,2013-05-23 05:32:00,
2013-05-23 01:42:00,65.0,63.0,-100.00,SW,230,8.0,12.0,92,0.00,,,-99.99,,2013-05-23 05:42:00,
2013-05-23 01:52:00,65.0,62.0,-100.00,SW,230,9.0,11.0,92,0.00,,,-99.99,,2013-05-23 05:52:00,
2013-05-23 02:02:00,65.0,62.0,-100.00,SW,235,7.0,11.0,92,0.00,,,-99.99,,2013-05-23 06:02:00,
2013-05-23 02:12:00,65.0,62.0,-100.00,SW,235,7.0,11.0,92,0.00,,,-99.99,,2013-05-23 06:12:00,
2013-05-23 02:21:00,65.0,62.0,-100.00,SW,235,7.0,10.0,92,0.00,,,-99.99,,2013-05-23 06:21:00,
2013-05-23 02:32:00,65.0,62.0,-100.00,WSW,245,9.0,14.0,91,0.00,,,-99.99,,2013-05-23 06:32:00,
2013-05-23 02:42:00,65.0,62.0,-100.00,WSW,245,8.0,12.0,91,0.00,,,-99.99,,2013-05-23 06:42:00,
2013-05-23 02:52:00,65.0,62.0,-100.00,SW,225,7.0,11.0,91,0.00,,,-99.99,,2013-05-23 06:52:00,
2013-05-23 03:02:00,65.0,62.0,-100.00,SW,230,8.0,11.0,91,0.00,,,-99.99,,2013-05-23 07:02:00,
2013-05-23 03:11:00,65.0,62.0,-100.00,SW,235,8.0,10.0,92,0.00,,,-99.99,,2013-05-23 07:11:00,
2013-05-23 03:21:00,64.0,62.0,-100.00,SW,235,9.0,11.0,92,0.00,,,-99.99,,2013-05-23 07:21:00,
2013-05-23 03:32:00,64.0,62.0,-100.00,WSW,245,9.0,11.0,92,0.00,,,-99.99,,2013-05-23 07:32:00,
2013-05-23 03:42:00,64.0,62.0,-100.00,WSW,240,9.0,12.0,93,0.00,,,-99.99,,2013-05-23 07:42:00,
2013-05-23 03:59:00,64.0,62.0,-100.00,WSW,240,9.0,12.0,93,0.00,,,-99.99,,2013-05-23 07:59:00,
2013-05-23 04:11:00,63.0,62.0,-100.00,WSW,245,7.0,14.0,94,0.00,,,-99.99,,2013-05-23 08:11:00,
2013-05-23 04:22:00,62.0,61.0,-100.00,SW,230,7.0,11.0,95,0.00,,,-99.99,,2013-05-23 08:22:00,
2013-05-23 04:32:00,62.0,61.0,-100.00,SW,230,7.0,11.0,95,0.00,,,-99.99,,2013-05-23 08:32:00,
2013-05-23 04:42:00,62.0,61.0,-100.00,SW,225,6.0,9.0,96,0.00,,,-99.99,,2013-05-23 08:42:00,
2013-05-23 04:51:00,61.0,60.0,-100.00,SW,230,6.0,9.0,96,0.00,,,-99.99,,2013-05-23 08:51:00,
2013-05-23 05:02:00,62.0,61.0,-100.00,SW,235,4.0,7.0,97,0.00,,,-99.99,,2013-05-23 09:02:00,
2013-05-23 05:11:00,62.0,61.0,-100.00,SW,230,5.0,7.0,97,0.00,,,-99.99,,2013-05-23 09:11:00,
2013-05-23 05:22:00,61.0,61.0,-100.00,SW,230,6.0,7.0,97,0.00,,,-99.99,,2013-05-23 09:22:00,
2013-05-23 05:33:00,61.0,61.0,-100.00,SW,230,6.0,7.0,97,0.00,,,-99.99,,2013-05-23 09:33:00,
2013-05-23 05:42:00,62.0,61.0,-100.00,WSW,240,7.0,9.0,97,0.00,,,-99.99,,2013-05-23 09:42:00,
2013-05-23 05:53:00,62.0,61.0,-100.00,WSW,250,7.0,10.0,97,0.00,,,-99.99,,2013-05-23 09:53:00,
2013-05-23 06:03:00,62.0,61.0,-100.00,WSW,250,7.0,10.0,97,0.00,,,-99.99,,2013-05-23 10:03:00,
2013-05-23 06:13:00,62.0,61.0,-100.00,WSW,240,8.0,11.0,97,0.00,,,-99.99,,2013-05-23 10:13:00,
2013-05-23 06:22:00,62.0,61.0,-100.00,SW,230,8.0,10.0,97,0.00,,,-99.99,,2013-05-23 10:22:00,
2013-05-23 06:32:00,62.0,61.0,-100.00,WSW,240,9.0,11.0,97,0.00,,,-99.99,,2013-05-23 10:32:00,
2013-05-23 06:42:00,62.0,61.0,-100.00,WSW,240,7.0,12.0,97,0.00,,,-99.99,,2013-05-23 10:42:00,
2013-05-23 06:52:00,62.0,61.0,-100.00,SW,235,9.0,12.0,97,0.00,,,-99.99,,2013-05-23 10:52:00,
2013-05-23 07:02:00,62.0,61.0,-100.00,WSW,250,9.0,12.0,97,0.00,,,-99.99,,2013-05-23 11:02:00,
2013-05-23 07:11:00,62.0,61.0,-100.00,WSW,250,9.0,12.0,97,0.00,,,-99.99,,2013-05-23 11:11:00,
2013-05-23 07:22:00,62.0,61.0,-100.00,WSW,250,9.0,12.0,97,0.00,,,-99.99,,2013-05-23 11:22:00,
2013-05-23 07:32:00,62.0,61.0,-100.00,West,265,7.0,11.0,96,0.00,,,-99.99,,2013-05-23 11:32:00,
2013-05-23 07:42:00,62.0,61.0,-100.00,WSW,255,6.0,9.0,96,0.00,,,-99.99,,2013-05-23 11:42:00,
2013-05-23 07:52:00,62.0,61.0,-100.00,West,270,7.0,10.0,96,0.00,,,-99.99,,2013-05-23 11:52:00,
2013-05-23 08:01:00,62.0,61.0,-100.00,WSW,255,9.0,11.0,96,0.00,,,-99.99,,2013-05-23 12:01:00,
2013-05-23 08:12:00,62.0,61.0,-100.00,WSW,255,8.0,10.0,95,0.00,,,-99.99,,2013-05-23 12:12:00,
2013-05-23 08:21:00,62.0,61.0,-100.00,WSW,250,9.0,12.0,95,0.00,,,-99.99,,2013-05-23 12:21:00,
2013-05-23 08:32:00,62.0,61.0,-100.00,WSW,255,9.0,12.0,95,0.00,,,-99.99,,2013-05-23 12:32:00,
2013-05-23 08:42:00,62.0,61.0,-100.00,WSW,245,7.0,12.0,95,0.00,,,-99.99,,2013-05-23 12:42:00,
2013-05-23 08:52:00,62.0,61.0,-100.00,WSW,245,7.0,12.0,95,0.00,,,-99.99,,2013-05-23 12:52:00,
2013-05-23 09:01:00,63.0,61.0,-100.00,SW,235,10.0,12.0,94,0.00,,,-99.99,,2013-05-23 13:01:00,
2013-05-23 09:11:00,63.0,61.0,-100.00,WSW,250,9.0,13.0,92,0.00,,,-99.99,,2013-05-23 13:11:00,
2013-05-23 09:22:00,63.0,61.0,-100.00,WSW,255,11.0,16.0,91,0.00,,,-99.99,,2013-05-23 13:22:00,
2013-05-23 09:32:00,63.0,60.0,-100.00,WSW,245,11.0,16.0,90,0.00,,,-99.99,,2013-05-23 13:32:00,
2013-05-23 09:42:00,64.0,60.0,-100.00,WSW,245,12.0,16.0,88,0.00,,,-99.99,,2013-05-23 13:42:00,
2013-05-23 09:52:00,64.0,60.0,-100.00,WSW,240,13.0,18.0,88,0.00,,,-99.99,,2013-05-23 13:52:00,
2013-05-23 10:02:00,65.0,60.0,-100.00,West,265,10.0,18.0,85,0.00,,,-99.99,,2013-05-23 14:02:00,
2013-05-23 10:11:00,65.0,60.0,-100.00,WSW,245,11.0,15.0,82,0.00,,,-99.99,,2013-05-23 14:11:00,
2013-05-23 10:21:00,66.0,60.0,-100.00,WSW,250,10.0,14.0,81,0.00,,,-99.99,,2013-05-23 14:21:00,
2013-05-23 10:32:00,65.0,60.0,-100.00,West,275,14.0,19.0,81,0.00,,,-99.99,,2013-05-23 14:32:00,
2013-05-23 10:42:00,65.0,59.0,-100.00,WSW,255,11.0,17.0,81,0.00,,,-99.99,,2013-05-23 14:42:00,
2013-05-23 10:52:00,65.0,60.0,-100.00,WSW,255,9.0,16.0,82,0.00,,,-99.99,,2013-05-23 14:52:00,
2013-05-23 11:01:00,65.0,59.0,-100.00,WSW,250,12.0,17.0,80,0.00,,,-99.99,,2013-05-23 15:01:00,
2013-05-23 11:11:00,66.0,60.0,-100.00,West,280,13.0,19.0,79,0.00,,,-99.99,,2013-05-23 15:11:00,
2013-05-23 11:21:00,66.0,59.0,-100.00,West,260,12.0,17.0,78,0.00,,,-99.99,,2013-05-23 15:21:00,
2013-05-23 11:33:00,66.0,59.0,-100.00,West,265,14.0,18.0,77,0.00,,,-99.99,,2013-05-23 15:33:00,
2013-05-23 11:42:00,66.0,58.0,-100.00,West,270,14.0,16.0,77,0.00,,,-99.99,,2013-05-23 15:42:00,
2013-05-23 11:53:00,66.0,59.0,-100.00,WSW,255,11.0,19.0,77,0.00,,,-99.99,,2013-05-23 15:53:00,
2013-05-23 12:03:00,66.0,59.0,-100.00,West,275,14.0,18.0,77,0.00,,,-99.99,,2013-05-23 16:03:00,
2013-05-23 12:12:00,66.0,59.0,-100.00,West,270,11.0,16.0,77,0.00,,,-99.99,,2013-05-23 16:12:00,
2013-05-23 12:23:00,64.0,58.0,-100.00,West,275,19.0,24.0,82,1.10,,,-99.99,,2013-05-23 16:23:00,
2013-05-23 12:34:00,62.0,60.0,-100.00,West,270,9.0,23.0,92,8.50,,,-99.99,,2013-05-23 16:34:00,
2013-05-23 12:42:00,62.0,61.0,-100.00,West,275,11.0,14.0,94,5.67,,,-99.99,,2013-05-23 16:42:00,
2013-05-23 12:52:00,64.0,63.0,-100.00,West,275,10.0,12.0,96,0.00,,,-99.99,,2013-05-23 16:52:00,
2013-05-23 13:03:00,64.0,62.0,-100.00,West,260,13.0,17.0,96,0.00,,,-99.99,,2013-05-23 17:03:00,
2013-05-23 13:11:00,64.0,63.0,-100.00,WSW,245,11.0,20.0,96,0.00,,,-99.99,,2013-05-23 17:11:00,
2013-05-23 13:23:00,64.0,63.0,-100.00,WSW,250,11.0,16.0,95,0.00,,,-99.99,,2013-05-23 17:23:00,
2013-05-23 13:33:00,64.0,63.0,-100.00,West,260,12.0,18.0,94,0.00,,,-99.99,,2013-05-23 17:33:00,
2013-05-23 13:43:00,64.0,63.0,-100.00,West,260,12.0,18.0,94,0.00,,,-99.99,,2013-05-23 17:43:00,
2013-05-23 13:52:00,65.0,63.0,-100.00,WNW,290,16.0,21.0,92,0.00,,,-99.99,,2013-05-23 17:52:00,
2013-05-23 14:01:00,65.0,62.0,-100.00,WNW,285,13.0,21.0,89,0.00,,,-99.99,,2013-05-23 18:01:00,
2013-05-23 14:11:00,63.0,60.0,-100.00,WNW,295,16.0,23.0,89,0.00,,,-99.99,,2013-05-23 18:11:00,
2013-05-23 14:22:00,63.0,60.0,-100.00,WNW,295,14.0,19.0,89,0.00,,,-99.99,,2013-05-23 18:22:00,
2013-05-23 14:32:00,63.0,60.0,-100.00,WNW,300,12.0,22.0,89,0.00,,,-99.99,,2013-05-23 18:32:00,
2013-05-23 14:42:00,62.0,59.0,-100.00,NW,310,16.0,23.0,89,0.00,,,-99.99,,2013-05-23 18:42:00,
2013-05-23 14:52:00,61.0,58.0,-100.00,NW,305,16.0,25.0,90,0.00,,,-99.99,,2013-05-23 18:52:00,
2013-05-23 15:01:00,59.0,57.0,-100.00,NW,305,15.0,23.0,91,0.00,,,-99.99,,2013-05-23 19:01:00,
2013-05-23 15:11:00,59.0,57.0,-100.00,NW,305,15.0,23.0,91,0.00,,,-99.99,,2013-05-23 19:11:00,
2013-05-23 15:21:00,58.0,56.0,-100.00,NW,315,14.0,21.0,92,1.10,,,-99.99,,2013-05-23 19:21:00,
2013-05-23 15:32:00,54.0,53.0,-100.00,North,0,8.0,20.0,94,5.08,,,-99.99,,2013-05-23 19:32:00,
2013-05-23 15:42:00,53.0,52.0,-100.00,North,0,8.0,16.0,95,1.10,,,-99.99,,2013-05-23 19:42:00,
2013-05-23 15:52:00,53.0,52.0,-100.00,NNW,335,10.0,17.0,96,0.00,,,-99.99,,2013-05-23 19:52:00,
2013-05-23 16:02:00,52.0,51.0,-100.00,North,0,7.0,19.0,96,0.00,,,-99.99,,2013-05-23 20:02:00,
2013-05-23 16:11:00,52.0,51.0,-100.00,NNE,20,11.0,16.0,95,1.10,,,-99.99,,2013-05-23 20:11:00,
2013-05-23 16:21:00,51.0,50.0,-100.00,North,0,11.0,20.0,95,1.10,,,-99.99,,2013-05-23 20:21:00,
2013-05-23 16:32:00,52.0,51.0,-100.00,NW,320,7.0,17.0,95,2.24,,,-99.99,,2013-05-23 20:32:00,
2013-05-23 16:42:00,52.0,51.0,-100.00,NW,320,7.0,17.0,95,2.24,,,-99.99,,2013-05-23 20:42:00,
2013-05-23 16:52:00,51.0,50.0,-100.00,North,10,10.0,21.0,95,0.55,,,-99.99,,2013-05-23 20:52:00,
2013-05-23 17:01:00,51.0,50.0,-100.00,North,0,6.0,21.0,95,0.00,,,-99.99,,2013-05-23 21:01:00,
2013-05-23 17:11:00,51.0,50.0,-100.00,NNE,20,7.0,14.0,95,0.00,,,-99.99,,2013-05-23 21:11:00,
2013-05-23 17:22:00,51.0,50.0,-100.00,NNE,20,7.0,14.0,95,0.00,,,-99.99,,2013-05-23 21:22:00,
2013-05-23 17:32:00,50.0,49.0,-100.00,North,0,10.0,18.0,94,0.00,,,-99.99,,2013-05-23 21:32:00,
2013-05-23 17:43:00,50.0,48.0,-100.00,North,5,10.0,17.0,93,1.10,,,-99.99,,2013-05-23 21:43:00,
2013-05-23 17:53:00,50.0,48.0,-100.00,North,350,12.0,17.0,94,0.55,,,-99.99,,2013-05-23 21:53:00,
2013-05-23 18:03:00,50.0,48.0,-100.00,North,5,9.0,20.0,94,0.55,,,-99.99,,2013-05-23 22:03:00,
2013-05-23 18:12:00,50.0,48.0,-100.00,North,5,9.0,17.0,94,0.00,,,-99.99,,2013-05-23 22:12:00,
2013-05-23 18:22:00,49.0,48.0,-100.00,North,355,8.0,19.0,95,0.00,,,-99.99,,2013-05-23 22:22:00,
2013-05-23 18:33:00,49.0,48.0,-100.00,North,0,6.0,14.0,95,0.00,,,-99.99,,2013-05-23 22:33:00,
2013-05-23 18:42:00,49.0,48.0,-100.00,North,0,6.0,14.0,95,0.00,,,-99.99,,2013-05-23 22:42:00,
2013-05-23 18:52:00,49.0,48.0,-100.00,North,0,6.0,16.0,96,0.00,,,-99.99,,2013-05-23 22:52:00,
2013-05-23 19:02:00,49.0,49.0,-100.00,North,350,7.0,14.0,96,0.00,,,-99.99,,2013-05-23 23:02:00,
2013-05-23 19:11:00,49.0,49.0,-100.00,North,350,7.0,14.0,96,0.00,,,-99.99,,2013-05-23 23:11:00,
2013-05-23 19:22:00,50.0,49.0,-100.00,NNE,15,7.0,17.0,96,1.69,,,-99.99,,2013-05-23 23:22:00,
2013-05-23 19:32:00,49.0,48.0,-100.00,North,0,7.0,14.0,96,2.83,,,-99.99,,2013-05-23 23:32:00,
2013-05-23 19:42:00,49.0,48.0,-100.00,North,0,7.0,14.0,96,2.83,,,-99.99,,2013-05-23 23:42:00,
2013-05-23 19:52:00,49.0,48.0,-100.00,North,0,7.0,14.0,96,2.83,,,-99.99,,2013-05-23 23:52:00,
2013-05-23 20:01:00,49.0,48.0,-100.00,NNE,20,9.0,14.0,96,1.10,,,-99.99,,2013-05-24 00:01:00,
2013-05-23 20:12:00,49.0,48.0,-100.00,NNE,25,7.0,14.0,96,0.00,,,-99.99,,2013-05-24 00:12:00,
2013-05-23 20:21:00,49.0,48.0,-100.00,NNE,25,7.0,13.0,96,0.00,,,-99.99,,2013-05-24 00:21:00,
2013-05-23 20:32:00,49.0,48.0,-100.00,North,5,4.0,11.0,96,0.00,,,-99.99,,2013-05-24 00:32:00,
2013-05-23 20:42:00,49.0,48.0,-100.00,NNE,20,6.0,12.0,96,0.00,,,-99.99,,2013-05-24 00:42:00,
2013-05-23 20:52:00,49.0,48.0,-100.00,NNE,30,7.0,14.0,96,0.00,,,-99.99,,2013-05-24 00:52:00,
2013-05-23 21:01:00,49.0,48.0,-100.00,North,10,7.0,14.0,95,0.00,,,-99.99,,2013-05-24 01:01:00,
2013-05-23 21:12:00,49.0,48.0,-100.00,NNW,340,7.0,14.0,94,0.00,,,-99.99,,2013-05-24 01:12:00,
2013-05-23 21:22:00,49.0,48.0,-100.00,North,0,5.0,16.0,94,0.00,,,-99.99,,2013-05-24 01:22:00,
2013-05-23 21:32:00,49.0,48.0,-100.00,North,0,7.0,17.0,93,0.00,,,-99.99,,2013-05-24 01:32:00,
2013-05-23 21:42:00,50.0,48.0,-100.00,North,0,4.0,11.0,92,0.00,,,-99.99,,2013-05-24 01:42:00,
2013-05-23 21:52:00,49.0,47.0,-100.00,North,0,7.0,12.0,92,0.00,,,-99.99,,2013-05-24 01:52:00,
2013-05-23 22:02:00,50.0,48.0,-100.00,North,355,6.0,12.0,93,0.00,,,-99.99,,2013-05-24 02:02:00,
2013-05-23 22:12:00,50.0,48.0,-100.00,NNE,25,6.0,10.0,93,0.00,,,-99.99,,2013-05-24 02:12:00,
2013-05-23 22:21:00,49.0,48.0,-100.00,NNW,340,3.0,7.0,93,0.00,,,-99.99,,2013-05-24 02:21:00,
2013-05-23 22:32:00,49.0,48.0,-100.00,NNW,340,3.0,7.0,93,0.00,,,-99.99,,2013-05-24 02:32:00,
2013-05-23 22:42:00,50.0,48.0,-100.00,NNE,30,7.0,10.0,94,0.55,,,-99.99,,2013-05-24 02:42:00,
2013-05-23 22:52:00,49.0,48.0,-100.00,North,355,4.0,11.0,94,0.00,,,-99.99,,2013-05-24 02:52:00,
2013-05-23 23:02:00,49.0,48.0,-100.00,NNE,20,10.0,15.0,96,0.00,,,-99.99,,2013-05-24 03:02:00,
2013-05-23 23:11:00,49.0,48.0,-100.00,North,10,4.0,12.0,96,0.00,,,-99.99,,2013-05-24 03:11:00,
2013-05-23 23:22:00,49.0,48.0,-100.00,NNW,345,7.0,10.0,97,0.00,,,-99.99,,2013-05-24 03:22:00,
2013-05-23 23:33:00,48.0,48.0,-100.00,NNW,335,5.0,10.0,97,0.00,,,-99.99,,2013-05-24 03:33:00,
2013-05-23 23:42:00,48.0,47.0,-100.00,North,0,7.0,11.0,97,0.00,,,-99.99,,2013-05-24 03:42:00,
2013-05-23 23:53:00,48.0,47.0,-100.00,North,0,6.0,12.0,97,0.00,,,-99.99,,2013-05-24 03:53:00,